FLOCK 1E-11

Last updated on Aug. 10, 2016, 1:37 a.m. UTC

1 40738U 98067GQ  16222.85009816  .19511452  12536-4  51589-3 0  9992
2 40738  51.6032  90.5633 0007986 267.2101  93.6970 16.45183613 61533

Satellite is not in orbit.